Regional Weather Roundup
Issued by NWS

Home | Current Version | Previous Version | Text Only | Print | Product List | Glossary Off
Versions: 1 2 3 4 5 6 7 8 9 10 11 12 13 14 15 16 17 18 19 20 21 22 23 24 25 26 27 28 29 30 31 32 33 34 35 36 37 38 39 40 41 42 43 44 45 46 47 48 49 50

000
ASUS43 KIND 031559
RWRIN

WEATHER ROUNDUP FOR INDIANA
NATIONAL WEATHER SERVICE INDIANAPOLIS IN
1200 PM EDT FRI JUL 03 2015

NOTE: "FAIR" INDICATES FEW OR NO CLOUDS BELOW 12,000 FEET WITH NO
SIGNIFICANT WEATHER AND/OR OBSTRUCTIONS TO VISIBILITY.

* - STATION DOES NOT REPORT WEATHER SUCH AS PRECIPITATION OR FOG.

+ - STATION NOT QUALITY CONTROLLED BY THE NATIONAL WEATHER SERVICE.
    USE DATA WITH CAUTION...ESPECIALLY DEWPOINT AND RELATIVE
    HUMIDITY OBSERVATIONS.

INZ001>003-010>013-019-020-031700-
NORTHWEST INDIANA

CITY           SKY/WX    TMP DP  RH WIND       PRES   REMARKS
GARY /AIRPORT/ PTSUNNY   70  61  73 MISG      29.98S
RENSSELAER +   MOSUNNY   72  61  68 E7        29.96R

$$

LMZ046-743>745-031700-
SOUTHERN LAKE MICHIGAN

STATION/POSITION TIME  TEMP    WIND        PRES    WAVE
                       AIR SEA DIR/SP/G            HT
                 (UTC) (F)     (DEG/KT/KT) (MB)    (FT)
BURNS HARBOR     1500   64      10/  7/  8 1015.6S
MICHIGAN CITY    1500   68      50/  2/  6   N/A
5NW MICH CITY    1500   63 64  360/  4/  6   N/A     1

$$

INZ004-005-014>016-021>024-031700-
NORTH CENTRAL INDIANA

CITY           SKY/WX    TMP DP  RH WIND       PRES   REMARKS
ELKHART        SUNNY     72  55  56 CALM      29.99R
GOSHEN         PTSUNNY   71  55  56 E10       29.97S
PERU/GRISSOM   PTSUNNY   69  59  71 NE7       29.95R
SOUTH BEND     MOSUNNY   71  54  54 E3        29.98S

$$

INZ006>009-017-018-025>027-031700-
NORTHEAST INDIANA

CITY           SKY/WX    TMP DP  RH WIND       PRES   REMARKS
ANGOLA *+        N/A     68  54  60 SE7       29.98S
FORT WAYNE     PTSUNNY   71  58  63 E12       29.96S

$$

INZ028-029-035-036-043>045-051>053-031700-
WEST CENTRAL INDIANA

CITY           SKY/WX    TMP DP  RH WIND       PRES   REMARKS
CRAWFORDSVL +  MOSUNNY   68  56  67 NE7       29.93R
GREENCASTLE +  MOSUNNY   72  59  64 NE7       29.92R
LAFAYETTE      CLOUDY    70  59  68 NE8       29.93S
TERRE HAUTE    CLOUDY    74  66  76 NE8       29.90R

$$

INZ030>032-037>040-046>048-054>057-064-065-031700-
CENTRAL INDIANA

CITY           SKY/WX    TMP DP  RH WIND       PRES   REMARKS
ANDERSON       MOSUNNY   68  55  64 NE6       29.95S
GREENWOOD *+   PTSUNNY   72  61  68 NE8       29.92S
INDIANAPOLIS   CLOUDY    68  60  75 N8        29.90R
-EAGLE CREEK   PTSUNNY   68  60  75 NE6       29.92R
KOKOMO *+      PTSUNNY   70  61  73 E10       29.94S
MT COMFORT *+  PTSUNNY   72  59  64 NE9       29.92S
SHELBYVILLE    LGT RAIN  67  63  87 E7        29.90S FOG

$$

INZ033-034-041-042-049-050-058-059-031700-
EAST CENTRAL INDIANA

CITY           SKY/WX    TMP DP  RH WIND       PRES   REMARKS
MUNCIE         PTSUNNY   70  60  70 E8        29.94S

$$

INZ060-061-067>069-081>083-085>088-031700-
SOUTHWEST INDIANA

CITY           SKY/WX    TMP DP  RH WIND       PRES   REMARKS
EVANSVILLE     CLOUDY    76  69  79 CALM      29.89R
HUNTINGBURG *+ CLOUDY    75  70  83 CALM      29.88R

$$

INZ062-063-066-070>080-084-089>092-031700-
SOUTH CENTRAL AND SOUTHEAST INDIANA

CITY           SKY/WX    TMP DP  RH WIND       PRES   REMARKS
BLOOMINGTON    CLOUDY    71  64  78 N7        29.90R
MADISON *+     CLOUDY    72  66  83 E6        29.90S
SEYMOUR +      CLOUDY    73  66  78 NE5       29.89R

$$



USA.gov is the U.S. government's official web portal to all federal, state and local government web resources and services.